Year,Month,Day,Hour,Minute,Value (Times are PST for temperature in C)
2015,07,20,00,00,20.10
2015,07,20,00,01,20.10
2015,07,20,00,02,20.10
2015,07,20,00,03,20.10
2015,07,20,00,04,20.10
2015,07,20,03,28,17.00
2015,07,20,03,29,17.00
2015,07,20,03,30,17.00
2015,07,20,03,31,17.00
2015,07,20,03,32,17.00
2015,07,20,03,33,17.00
2015,07,20,03,34,16.90
2015,07,20,03,35,16.90
2015,07,20,03,36,16.90
2015,07,20,03,37,16.90
2015,07,20,03,38,16.90
2015,07,20,03,39,16.90
2015,07,20,03,40,16.90
2015,07,20,03,41,16.90
2015,07,20,03,42,16.80
2015,07,20,03,43,16.80
2015,07,20,03,44,16.80
2015,07,20,03,45,16.80
2015,07,20,03,46,16.80
2015,07,20,03,47,16.80
2015,07,20,03,48,16.80
2015,07,20,03,49,16.80
2015,07,20,03,50,16.80
2015,07,20,03,51,16.80
2015,07,20,03,52,16.80
2015,07,20,03,53,16.70
2015,07,20,03,54,16.70
2015,07,20,03,55,16.70
2015,07,20,03,56,16.70
2015,07,20,03,57,16.70
2015,07,20,03,58,16.70
2015,07,20,03,59,16.70
2015,07,20,04,00,16.70
2015,07,20,04,01,16.60
2015,07,20,04,02,16.60
2015,07,20,04,03,16.60
2015,07,20,04,04,16.60
2015,07,20,04,05,16.60
2015,07,20,04,06,16.60
2015,07,20,04,07,16.60
2015,07,20,04,08,16.60
2015,07,20,04,09,16.60
2015,07,20,04,10,16.60
2015,07,20,04,11,16.60
2015,07,20,04,12,16.50
2015,07,20,04,13,16.50
2015,07,20,04,14,16.50
2015,07,20,04,15,16.50
2015,07,20,04,16,16.50
2015,07,20,04,17,16.50
2015,07,20,04,18,16.60
2015,07,20,04,19,16.60
2015,07,20,04,20,16.60
2015,07,20,04,21,16.60
2015,07,20,04,22,16.60
2015,07,20,04,23,16.60
2015,07,20,04,24,16.60
2015,07,20,04,25,16.60
2015,07,20,04,26,16.50
2015,07,20,04,27,16.50
2015,07,20,04,28,16.50
2015,07,20,04,29,16.40
2015,07,20,04,30,16.40
2015,07,20,04,31,16.40
2015,07,20,04,32,16.40
2015,07,20,04,33,16.40
2015,07,20,04,34,16.40
2015,07,20,04,35,16.30
2015,07,20,04,36,16.30
2015,07,20,04,37,16.30
2015,07,20,04,38,16.30
2015,07,20,04,39,16.30
2015,07,20,04,40,16.20
2015,07,20,04,41,16.20
2015,07,20,04,42,16.20
2015,07,20,04,43,16.20
2015,07,20,04,44,16.20
2015,07,20,04,45,16.20
2015,07,20,04,46,16.10
2015,07,20,04,47,16.10
2015,07,20,04,48,16.10
2015,07,20,04,49,16.10
2015,07,20,04,50,16.10
2015,07,20,04,51,16.10
2015,07,20,04,52,16.10
2015,07,20,04,53,16.10
2015,07,20,04,54,16.10
2015,07,20,04,55,16.00
2015,07,20,04,56,16.00
2015,07,20,04,57,16.00
2015,07,20,04,58,16.00
2015,07,20,04,59,16.00
2015,07,20,05,00,16.00
2015,07,20,05,01,16.00
2015,07,20,05,02,16.00
2015,07,20,05,03,16.00
2015,07,20,05,04,16.00
2015,07,20,05,05,16.00
2015,07,20,05,06,16.00
2015,07,20,05,07,16.00
2015,07,20,05,08,16.00
2015,07,20,05,09,15.90
2015,07,20,05,10,15.90
2015,07,20,05,11,15.90
2015,07,20,05,12,15.80
2015,07,20,05,13,15.80
2015,07,20,05,14,15.80
2015,07,20,05,15,15.80
2015,07,20,05,16,15.70
2015,07,20,05,17,15.70
2015,07,20,05,18,15.60
2015,07,20,05,19,15.60
2015,07,20,05,20,15.60
2015,07,20,05,21,15.60
2015,07,20,05,22,15.50
2015,07,20,05,23,15.50
2015,07,20,05,24,15.50
2015,07,20,05,25,15.50
2015,07,20,05,26,15.40
2015,07,20,05,27,15.40
2015,07,20,05,28,15.40
2015,07,20,05,29,15.40
2015,07,20,05,30,15.30
2015,07,20,05,31,15.30
2015,07,20,05,32,15.30
2015,07,20,05,33,15.40
2015,07,20,05,34,15.40
2015,07,20,05,35,15.40
2015,07,20,05,36,15.40
2015,07,20,05,37,15.40
2015,07,20,05,38,15.50
2015,07,20,05,39,15.50
2015,07,20,05,40,15.50
2015,07,20,05,41,15.50
2015,07,20,05,42,15.50
2015,07,20,05,43,15.50
2015,07,20,05,44,15.50
2015,07,20,05,45,15.50
2015,07,20,05,46,15.50
2015,07,20,05,47,15.50
2015,07,20,05,48,15.50
2015,07,20,05,49,15.50
2015,07,20,05,50,15.50
2015,07,20,05,51,15.50
2015,07,20,05,52,15.40
2015,07,20,05,53,15.40
2015,07,20,05,54,15.50
2015,07,20,05,55,15.40
2015,07,20,05,56,15.40
2015,07,20,05,57,15.40
2015,07,20,05,58,15.40
2015,07,20,05,59,15.40
2015,07,20,06,00,15.40
2015,07,20,06,01,15.40
2015,07,20,06,02,15.40
2015,07,20,06,03,15.40
2015,07,20,06,04,15.40
2015,07,20,06,05,15.30
2015,07,20,06,06,15.30
2015,07,20,06,07,15.30
2015,07,20,06,08,15.30
2015,07,20,06,09,15.30
2015,07,20,06,10,15.30
2015,07,20,06,11,15.20
2015,07,20,06,12,15.20
2015,07,20,06,13,15.20
2015,07,20,06,14,15.20
2015,07,20,06,15,15.20
2015,07,20,06,16,15.20
2015,07,20,06,17,15.20
2015,07,20,06,18,15.20
2015,07,20,06,19,15.20
2015,07,20,06,20,15.10
2015,07,20,06,21,15.10
2015,07,20,06,22,15.20
2015,07,20,06,23,15.20
2015,07,20,06,24,15.20
2015,07,20,06,25,15.20
2015,07,20,06,26,15.20
2015,07,20,06,27,15.20
2015,07,20,06,28,15.20
2015,07,20,06,29,15.20
2015,07,20,06,30,15.30
2015,07,20,06,31,15.20
2015,07,20,06,32,15.30
2015,07,20,06,33,15.30
2015,07,20,06,34,15.30
2015,07,20,06,35,15.30
2015,07,20,06,36,15.30
2015,07,20,06,37,15.30
2015,07,20,06,38,15.30
2015,07,20,06,39,15.30
2015,07,20,06,40,15.40
2015,07,20,06,41,15.40
2015,07,20,06,42,15.40
2015,07,20,06,43,15.40
2015,07,20,06,44,15.40
2015,07,20,06,45,15.40
2015,07,20,06,46,15.40
2015,07,20,06,47,15.40
2015,07,20,06,48,15.50
2015,07,20,06,49,15.50
2015,07,20,06,50,15.50
2015,07,20,06,51,15.60
2015,07,20,06,52,15.60
2015,07,20,06,53,15.60
2015,07,20,06,54,15.60
2015,07,20,06,55,15.70
2015,07,20,06,56,15.70
2015,07,20,06,57,15.70
2015,07,20,06,58,15.80
2015,07,20,06,59,15.80
2015,07,20,07,00,15.80
2015,07,20,07,01,15.80
2015,07,20,07,02,15.80
2015,07,20,07,03,15.80
2015,07,20,07,04,15.90
2015,07,20,07,05,15.90
2015,07,20,07,06,15.90
2015,07,20,07,07,15.90
2015,07,20,07,08,15.90
2015,07,20,07,09,15.80
2015,07,20,07,10,15.80
2015,07,20,07,11,15.90
2015,07,20,07,12,15.90
2015,07,20,07,13,15.90
2015,07,20,07,14,15.90
2015,07,20,07,15,16.00
2015,07,20,07,16,16.00
2015,07,20,07,17,16.00
2015,07,20,07,18,16.00
2015,07,20,07,19,16.10
2015,07,20,07,20,16.10
2015,07,20,07,21,16.10
2015,07,20,07,22,16.20
2015,07,20,07,23,16.20
2015,07,20,07,24,16.20
2015,07,20,07,25,16.20
2015,07,20,07,26,16.30
2015,07,20,07,27,16.30
2015,07,20,07,28,16.30
2015,07,20,07,29,16.40
2015,07,20,07,30,16.40
2015,07,20,07,31,16.50
2015,07,20,07,32,16.50
2015,07,20,07,33,16.50
2015,07,20,07,34,16.50
2015,07,20,07,35,16.60
2015,07,20,07,36,16.60
2015,07,20,07,37,16.60
2015,07,20,07,38,16.60
2015,07,20,07,39,16.60
2015,07,20,07,40,16.60
2015,07,20,07,41,16.60
2015,07,20,07,42,16.60
2015,07,20,07,43,16.60
2015,07,20,07,44,16.60
2015,07,20,07,45,16.60
2015,07,20,07,46,16.60
2015,07,20,07,47,16.60
2015,07,20,07,48,16.60
2015,07,20,07,49,16.60
2015,07,20,07,50,16.70
2015,07,20,07,51,16.70
2015,07,20,07,52,16.70
2015,07,20,07,53,16.70
2015,07,20,07,54,16.70
2015,07,20,07,55,16.80
2015,07,20,07,56,16.80
2015,07,20,07,57,16.80
2015,07,20,07,58,16.90
2015,07,20,07,59,17.00
2015,07,20,08,00,17.00
2015,07,20,08,01,17.10
2015,07,20,08,02,17.20
2015,07,20,08,03,17.20
2015,07,20,08,04,17.20
2015,07,20,08,05,17.30
2015,07,20,08,06,17.30
2015,07,20,08,07,17.40
2015,07,20,08,08,17.50
2015,07,20,08,09,17.50
2015,07,20,08,10,17.60
2015,07,20,08,11,17.60
2015,07,20,08,12,17.70
2015,07,20,08,13,17.70
2015,07,20,08,14,17.80
2015,07,20,08,15,17.80
2015,07,20,08,16,17.80
2015,07,20,08,17,17.70
2015,07,20,08,18,17.60
2015,07,20,08,19,17.60
2015,07,20,08,20,17.60
2015,07,20,08,21,17.70
2015,07,20,08,22,17.70
2015,07,20,08,23,17.70
2015,07,20,08,24,17.70
2015,07,20,08,25,17.70
2015,07,20,08,26,17.70
2015,07,20,08,27,17.80
2015,07,20,08,28,17.80
2015,07,20,08,29,17.90
2015,07,20,08,30,18.00
2015,07,20,08,31,18.10
2015,07,20,08,32,18.20
2015,07,20,08,33,18.10
2015,07,20,08,34,18.10
2015,07,20,08,35,18.00
2015,07,20,08,36,18.00
2015,07,20,08,37,17.90
2015,07,20,08,38,17.90
2015,07,20,08,39,17.80
2015,07,20,08,40,17.80
2015,07,20,08,41,17.80
2015,07,20,08,42,17.80
2015,07,20,08,43,17.80
2015,07,20,08,44,17.90
2015,07,20,08,45,18.00
2015,07,20,08,46,18.00
2015,07,20,08,47,18.10
2015,07,20,08,48,18.20
2015,07,20,08,49,18.30
2015,07,20,08,50,18.30
2015,07,20,08,51,18.30
2015,07,20,08,52,18.30
2015,07,20,08,53,18.30
2015,07,20,08,54,18.30
2015,07,20,08,55,18.30
2015,07,20,08,56,18.30
2015,07,20,08,57,18.30
2015,07,20,08,58,18.30
2015,07,20,08,59,18.30
2015,07,20,09,00,18.30
2015,07,20,09,01,18.30
2015,07,20,09,02,18.20
2015,07,20,09,03,18.20
2015,07,20,09,04,18.20
2015,07,20,09,05,18.20
2015,07,20,09,06,18.30
2015,07,20,09,07,18.30
2015,07,20,09,08,18.30
2015,07,20,09,09,18.40
2015,07,20,09,10,18.40
2015,07,20,09,11,18.50
2015,07,20,09,12,18.50
2015,07,20,09,13,18.60
2015,07,20,09,14,18.60
2015,07,20,09,15,18.60
2015,07,20,09,16,18.70
2015,07,20,09,17,18.80
2015,07,20,09,18,18.80
2015,07,20,09,19,18.80
2015,07,20,09,20,18.80
2015,07,20,09,21,18.90
2015,07,20,09,22,18.90
2015,07,20,09,23,19.00
2015,07,20,09,24,19.10
2015,07,20,09,25,19.10
2015,07,20,09,26,19.10
2015,07,20,09,27,19.10
2015,07,20,09,28,19.10
2015,07,20,09,29,19.10
2015,07,20,09,30,19.10
2015,07,20,09,31,19.10
2015,07,20,09,32,19.10
2015,07,20,09,33,19.10
2015,07,20,09,34,19.10
2015,07,20,09,35,19.10
2015,07,20,09,36,19.10
2015,07,20,09,37,19.00
2015,07,20,09,38,19.00
2015,07,20,09,39,18.90
2015,07,20,09,40,18.90
2015,07,20,09,41,18.90
2015,07,20,09,42,19.00
2015,07,20,09,43,19.00
2015,07,20,09,44,19.10
2015,07,20,09,45,19.20
2015,07,20,09,46,19.20
2015,07,20,09,47,19.20
2015,07,20,09,48,19.20
2015,07,20,09,49,19.20
2015,07,20,09,50,19.10
2015,07,20,09,51,19.00
2015,07,20,09,52,18.90
2015,07,20,09,53,18.90
2015,07,20,09,54,18.80
2015,07,20,09,55,18.80
2015,07,20,09,56,18.70
2015,07,20,09,57,18.80
2015,07,20,09,58,18.80
2015,07,20,09,59,18.80
2015,07,20,10,00,18.90
2015,07,20,10,01,18.90
2015,07,20,10,02,18.90
2015,07,20,10,03,18.90
2015,07,20,10,04,18.90
2015,07,20,10,05,19.00
2015,07,20,10,06,19.00
2015,07,20,10,07,19.10
2015,07,20,10,08,19.10
2015,07,20,10,09,19.10
2015,07,20,10,10,19.10
2015,07,20,10,11,19.20
2015,07,20,10,12,19.20
2015,07,20,10,13,19.30
2015,07,20,10,14,19.40
2015,07,20,10,15,19.40
2015,07,20,10,16,19.50
2015,07,20,10,17,19.50
2015,07,20,10,18,19.60
2015,07,20,10,19,19.70
2015,07,20,10,20,19.70
2015,07,20,10,21,19.80
2015,07,20,10,22,19.80
2015,07,20,10,23,19.70
2015,07,20,10,24,19.70
2015,07,20,10,25,19.70
2015,07,20,10,26,19.70
2015,07,20,10,27,19.70
2015,07,20,10,28,19.70
2015,07,20,10,29,19.60
2015,07,20,10,30,19.60
2015,07,20,10,31,19.60
2015,07,20,10,32,19.70
2015,07,20,10,33,19.70
2015,07,20,10,34,19.70
2015,07,20,10,35,19.80
2015,07,20,10,36,19.80
2015,07,20,10,37,19.80
2015,07,20,10,38,19.80
2015,07,20,10,39,19.90
2015,07,20,10,40,20.00
2015,07,20,10,41,20.00
2015,07,20,10,42,20.10
2015,07,20,10,43,20.20
2015,07,20,10,44,20.20
2015,07,20,10,45,20.30
2015,07,20,10,46,20.40
2015,07,20,10,47,20.50
2015,07,20,10,48,20.60
2015,07,20,10,49,20.60
2015,07,20,10,50,20.60
2015,07,20,10,51,20.70
2015,07,20,10,52,20.80
2015,07,20,10,53,21.00
2015,07,20,10,54,21.10
2015,07,20,10,55,21.20
2015,07,20,10,56,21.20
2015,07,20,10,57,21.20
2015,07,20,10,58,21.30
2015,07,20,10,59,21.30
2015,07,20,11,00,21.30
2015,07,20,11,01,21.30
2015,07,20,11,02,21.40
2015,07,20,11,03,21.50
2015,07,20,11,04,21.50
2015,07,20,11,05,21.60
2015,07,20,11,06,21.70
2015,07,20,11,07,21.80
2015,07,20,11,08,21.80
2015,07,20,11,09,21.90
2015,07,20,11,10,21.90
2015,07,20,11,11,21.90
2015,07,20,11,12,21.90
2015,07,20,11,13,21.90
2015,07,20,11,14,21.90
2015,07,20,11,15,21.90
2015,07,20,11,16,21.90
2015,07,20,11,17,21.80
2015,07,20,11,18,21.80
2015,07,20,11,19,21.70
2015,07,20,11,20,21.40
2015,07,20,11,21,21.00
2015,07,20,11,22,20.50
2015,07,20,11,23,20.00
2015,07,20,11,24,19.70
2015,07,20,11,25,19.50
2015,07,20,11,26,19.40
2015,07,20,11,27,19.40
2015,07,20,11,28,19.40
2015,07,20,11,29,19.40
2015,07,20,11,30,19.30
2015,07,20,11,31,19.20
2015,07,20,11,32,19.10
2015,07,20,11,33,18.90
2015,07,20,11,34,18.80
2015,07,20,11,35,18.70
2015,07,20,11,36,18.60
2015,07,20,11,37,18.60
2015,07,20,11,38,18.60
2015,07,20,11,39,18.60
2015,07,20,11,40,18.60
2015,07,20,11,41,18.60
2015,07,20,11,42,18.60
2015,07,20,11,43,18.60
2015,07,20,11,44,18.60
2015,07,20,11,45,18.60
2015,07,20,11,46,18.60
2015,07,20,11,47,18.70
2015,07,20,11,48,18.70
2015,07,20,11,49,18.80
2015,07,20,11,50,18.80
2015,07,20,11,51,18.80
2015,07,20,11,52,18.90
2015,07,20,11,53,19.00
2015,07,20,11,54,19.10
2015,07,20,11,55,19.30
2015,07,20,11,56,19.40
2015,07,20,11,57,19.50
2015,07,20,11,58,19.50
2015,07,20,11,59,19.60
2015,07,20,12,00,19.70
2015,07,20,12,01,19.80
2015,07,20,12,02,19.90
2015,07,20,12,03,20.00
2015,07,20,12,04,20.00
2015,07,20,12,05,20.10
2015,07,20,12,06,20.20
2015,07,20,12,07,20.20
2015,07,20,12,08,20.30
2015,07,20,12,09,20.40
2015,07,20,12,10,20.40
2015,07,20,12,11,20.50
2015,07,20,12,12,20.60
2015,07,20,12,13,20.60
2015,07,20,12,14,20.70
2015,07,20,12,15,20.60
2015,07,20,12,16,20.60
2015,07,20,12,17,20.70
2015,07,20,12,18,20.70
2015,07,20,12,19,20.60
2015,07,20,12,20,20.50
2015,07,20,12,21,20.40
2015,07,20,12,22,20.40
2015,07,20,12,23,20.30
2015,07,20,12,24,20.20
2015,07,20,12,25,20.10
2015,07,20,12,26,20.00
2015,07,20,12,27,19.90
2015,07,20,12,28,19.90
2015,07,20,12,29,19.80
2015,07,20,12,30,19.90
2015,07,20,12,31,19.90
2015,07,20,12,32,19.90
2015,07,20,12,33,19.80
2015,07,20,12,34,19.80
2015,07,20,12,35,19.80
2015,07,20,12,36,19.80
2015,07,20,12,37,19.80
2015,07,20,12,38,19.80
2015,07,20,12,39,19.70
2015,07,20,12,40,19.60
2015,07,20,12,41,19.50
2015,07,20,12,42,19.40
2015,07,20,12,43,19.40
2015,07,20,12,44,19.40
2015,07,20,12,45,19.30
2015,07,20,12,46,19.30
2015,07,20,12,47,19.30
2015,07,20,12,48,19.40
2015,07,20,12,49,19.50
2015,07,20,12,50,19.60
2015,07,20,12,51,19.70
2015,07,20,12,52,19.70
2015,07,20,12,53,19.70
2015,07,20,12,54,19.70
2015,07,20,12,55,19.70
2015,07,20,12,56,19.70
2015,07,20,12,57,19.70
2015,07,20,12,58,19.70
2015,07,20,12,59,19.70
2015,07,20,13,00,19.80
2015,07,20,13,01,19.80
2015,07,20,13,02,19.80
2015,07,20,13,03,19.80
2015,07,20,13,04,19.80
2015,07,20,13,05,19.80
2015,07,20,13,06,19.70
2015,07,20,13,07,19.80
2015,07,20,13,08,19.80
2015,07,20,13,09,19.70
2015,07,20,13,10,19.70
2015,07,20,13,11,19.80
2015,07,20,13,12,19.80
2015,07,20,13,13,19.90
2015,07,20,13,14,19.90
2015,07,20,13,15,19.90
2015,07,20,13,16,19.90
2015,07,20,13,17,20.00
2015,07,20,13,18,20.00
2015,07,20,13,19,19.90
2015,07,20,13,20,19.80
2015,07,20,13,21,19.70
2015,07,20,13,22,19.60
2015,07,20,13,23,19.60
2015,07,20,13,24,19.60
2015,07,20,13,25,19.60
2015,07,20,13,26,19.60
2015,07,20,13,27,19.60
2015,07,20,13,28,19.60
2015,07,20,13,29,19.60
2015,07,20,13,30,19.60
2015,07,20,13,31,19.70
2015,07,20,13,32,19.70
2015,07,20,13,33,19.80
2015,07,20,13,34,19.80
2015,07,20,13,35,19.80
2015,07,20,13,36,19.70
2015,07,20,13,37,19.70
2015,07,20,13,38,19.80
2015,07,20,13,39,19.80
2015,07,20,13,40,19.80
2015,07,20,13,41,19.80
2015,07,20,13,42,19.80
2015,07,20,13,43,19.70
2015,07,20,13,44,19.70
2015,07,20,13,45,19.70
2015,07,20,13,46,19.70
2015,07,20,13,47,19.70
2015,07,20,13,48,19.70
2015,07,20,13,49,19.70
2015,07,20,13,50,19.70
2015,07,20,13,51,19.80
2015,07,20,13,52,19.90
2015,07,20,13,53,19.90
2015,07,20,13,54,19.90
2015,07,20,13,55,19.90
2015,07,20,13,56,20.00
2015,07,20,13,57,20.00
2015,07,20,13,58,20.00
2015,07,20,13,59,19.90
2015,07,20,14,00,19.80
2015,07,20,14,01,19.80
2015,07,20,14,02,19.70
2015,07,20,14,03,19.70
2015,07,20,14,04,19.60
2015,07,20,14,05,19.50
2015,07,20,14,06,19.50
2015,07,20,14,07,19.40
2015,07,20,14,08,19.40
2015,07,20,14,09,19.40
2015,07,20,14,10,19.40
2015,07,20,14,11,19.40
2015,07,20,14,12,19.40
2015,07,20,14,13,19.50
2015,07,20,14,14,19.50
2015,07,20,14,15,19.60
2015,07,20,14,16,19.50
2015,07,20,14,17,19.50
2015,07,20,14,18,19.60
2015,07,20,14,19,19.60
2015,07,20,14,20,19.60
2015,07,20,14,21,19.60
2015,07,20,14,22,19.60
2015,07,20,14,23,19.50
2015,07,20,14,24,19.50
2015,07,20,14,25,19.40
2015,07,20,14,26,19.40
2015,07,20,14,27,19.40
2015,07,20,14,28,19.40
2015,07,20,14,29,19.50
2015,07,20,14,30,19.60
2015,07,20,14,31,19.70
2015,07,20,14,32,19.80
2015,07,20,14,33,19.90
2015,07,20,14,34,19.90
2015,07,20,14,35,19.90
2015,07,20,14,36,20.00
2015,07,20,14,37,20.00
2015,07,20,14,38,20.10
2015,07,20,14,39,20.00
2015,07,20,14,40,20.00
2015,07,20,14,41,19.90
2015,07,20,14,42,19.70
2015,07,20,14,43,19.70
2015,07,20,14,44,19.70
2015,07,20,14,45,19.60
2015,07,20,14,46,19.60
2015,07,20,14,47,19.60
2015,07,20,14,48,19.60
2015,07,20,14,49,19.70
2015,07,20,14,50,19.70
2015,07,20,14,51,19.70
2015,07,20,14,52,19.70
2015,07,20,14,53,19.70
2015,07,20,14,54,19.80
2015,07,20,14,55,19.70
2015,07,20,14,56,19.70
2015,07,20,14,57,19.70
2015,07,20,14,58,19.70
2015,07,20,14,59,19.70
2015,07,20,15,00,19.80
2015,07,20,15,01,19.90
2015,07,20,15,02,19.90
2015,07,20,15,03,19.90
2015,07,20,15,04,20.00
2015,07,20,15,05,19.90
2015,07,20,15,06,19.90
2015,07,20,15,07,19.90
2015,07,20,15,08,19.90
2015,07,20,15,09,19.90
2015,07,20,15,10,19.80
2015,07,20,15,11,19.70
2015,07,20,15,12,19.60
2015,07,20,15,13,19.60
2015,07,20,15,14,19.70
2015,07,20,15,15,19.70
2015,07,20,15,16,19.80
2015,07,20,15,17,19.90
2015,07,20,15,18,19.90
2015,07,20,15,19,19.80
2015,07,20,15,20,19.80
2015,07,20,15,21,19.80
2015,07,20,15,22,19.80
2015,07,20,15,23,19.80
2015,07,20,15,24,19.90
2015,07,20,15,25,20.00
2015,07,20,15,26,20.00
2015,07,20,15,27,20.00
2015,07,20,15,28,19.90
2015,07,20,15,29,19.90
2015,07,20,15,30,19.80
2015,07,20,15,31,19.80
2015,07,20,15,32,19.80
2015,07,20,15,33,19.80
2015,07,20,15,34,19.70
2015,07,20,15,35,19.70
2015,07,20,15,36,19.60
2015,07,20,15,37,19.60
2015,07,20,15,38,19.70
2015,07,20,15,39,19.70
2015,07,20,15,40,19.60
2015,07,20,15,41,19.60
2015,07,20,15,42,19.60
2015,07,20,15,43,19.70
2015,07,20,15,44,19.70
2015,07,20,15,45,19.70
2015,07,20,15,46,19.80
2015,07,20,15,47,19.90
2015,07,20,15,48,20.00
2015,07,20,15,49,20.10
2015,07,20,15,50,20.00
2015,07,20,15,51,20.00
2015,07,20,15,52,20.00
2015,07,20,15,53,20.00
2015,07,20,15,54,20.00
2015,07,20,15,55,20.00
2015,07,20,15,56,20.00
2015,07,20,15,57,19.90
2015,07,20,15,58,19.90
2015,07,20,15,59,19.90
2015,07,20,16,00,19.90
2015,07,20,16,01,19.90
2015,07,20,16,02,20.00
2015,07,20,16,03,20.10
2015,07,20,16,04,20.10
2015,07,20,16,05,20.20
2015,07,20,16,06,20.30
2015,07,20,16,07,20.40
2015,07,20,16,08,20.40
2015,07,20,16,09,20.30
2015,07,20,16,10,20.30
2015,07,20,16,11,20.30
2015,07,20,16,12,20.40
2015,07,20,16,13,20.40
2015,07,20,16,14,20.40
2015,07,20,16,15,20.40
2015,07,20,16,16,20.40
2015,07,20,16,17,20.30
2015,07,20,16,18,20.30
2015,07,20,16,19,20.20
2015,07,20,16,20,20.30
2015,07,20,16,21,20.30
2015,07,20,16,22,20.40
2015,07,20,16,23,20.40
2015,07,20,16,24,20.50
2015,07,20,16,25,20.50
2015,07,20,16,26,20.50
2015,07,20,16,27,20.50
2015,07,20,16,28,20.60
2015,07,20,16,29,20.60
2015,07,20,16,30,20.60
2015,07,20,16,31,20.70
2015,07,20,16,32,20.70
2015,07,20,16,33,20.60
2015,07,20,16,34,20.60
2015,07,20,16,35,20.50
2015,07,20,16,36,20.40
2015,07,20,16,37,20.40
2015,07,20,16,38,20.40
2015,07,20,16,39,20.40
2015,07,20,16,40,20.40
2015,07,20,16,41,20.40
2015,07,20,16,42,20.40
2015,07,20,16,43,20.40
2015,07,20,16,44,20.40
2015,07,20,16,45,20.40
2015,07,20,16,46,20.50
2015,07,20,16,47,20.50
2015,07,20,16,48,20.40
2015,07,20,16,49,20.50
2015,07,20,16,50,20.50
2015,07,20,16,51,20.60
2015,07,20,16,52,20.60
2015,07,20,16,53,20.70
2015,07,20,16,54,20.70
2015,07,20,16,55,20.70
2015,07,20,16,56,20.80
2015,07,20,16,57,20.80
2015,07,20,16,58,20.80
2015,07,20,16,59,20.80
2015,07,20,17,00,20.70
2015,07,20,17,01,20.70
2015,07,20,17,02,20.70
2015,07,20,17,03,20.70
2015,07,20,17,04,20.60
2015,07,20,17,05,20.60
2015,07,20,17,06,20.60
2015,07,20,17,07,20.60
2015,07,20,17,08,20.60
2015,07,20,17,09,20.60
2015,07,20,17,10,20.60
2015,07,20,17,11,20.60
2015,07,20,17,12,20.60
2015,07,20,17,13,20.60
2015,07,20,17,14,20.70
2015,07,20,17,15,20.60
2015,07,20,17,16,20.60
2015,07,20,17,17,20.60
2015,07,20,17,18,20.60
2015,07,20,17,19,20.60
2015,07,20,17,20,20.60
2015,07,20,17,21,20.60
2015,07,20,17,22,20.60
2015,07,20,17,23,20.60
2015,07,20,17,24,20.60
2015,07,20,17,25,20.50
2015,07,20,17,26,20.50
2015,07,20,17,27,20.40
2015,07,20,17,28,20.40
2015,07,20,17,29,20.50
2015,07,20,17,30,20.60
2015,07,20,17,31,20.60
2015,07,20,17,32,20.60
2015,07,20,17,33,20.50
2015,07,20,17,34,20.50
2015,07,20,17,35,20.40
2015,07,20,17,36,20.40
2015,07,20,17,37,20.40
2015,07,20,17,38,20.50
2015,07,20,17,39,20.40
2015,07,20,17,40,20.40
2015,07,20,17,41,20.40
2015,07,20,17,42,20.50
2015,07,20,17,43,20.50
2015,07,20,17,44,20.50
2015,07,20,17,45,20.60
2015,07,20,17,46,20.60
2015,07,20,17,47,20.60
2015,07,20,17,48,20.70
2015,07,20,17,49,20.70
2015,07,20,17,50,20.70
2015,07,20,17,51,20.70
2015,07,20,17,52,20.70
2015,07,20,17,53,20.80
2015,07,20,17,54,20.80
2015,07,20,17,55,20.80
2015,07,20,17,56,20.70
2015,07,20,17,57,20.80
2015,07,20,17,58,20.80
2015,07,20,17,59,20.80
2015,07,20,18,00,20.80
2015,07,20,18,01,20.80
2015,07,20,18,02,20.70
2015,07,20,18,03,20.70
2015,07,20,18,04,20.70
2015,07,20,18,05,20.60
2015,07,20,18,06,20.60
2015,07,20,18,07,20.60
2015,07,20,18,08,20.60
2015,07,20,18,09,20.60
2015,07,20,18,10,20.60
2015,07,20,18,11,20.50
2015,07,20,18,12,20.40
2015,07,20,18,13,20.40
2015,07,20,18,14,20.30
2015,07,20,18,15,20.30
2015,07,20,18,16,20.30
2015,07,20,18,17,20.20
2015,07,20,18,18,20.20
2015,07,20,18,19,20.20
2015,07,20,18,20,20.20
2015,07,20,18,21,20.20
2015,07,20,18,22,20.20
2015,07,20,18,23,20.20
2015,07,20,18,24,20.30
2015,07,20,18,25,20.30
2015,07,20,18,26,20.30
2015,07,20,18,27,20.30
2015,07,20,18,28,20.30
2015,07,20,18,29,20.40
2015,07,20,18,30,20.50
2015,07,20,18,31,20.50
2015,07,20,18,32,20.50
2015,07,20,18,33,20.50
2015,07,20,18,34,20.50
2015,07,20,18,35,20.50
2015,07,20,18,36,20.60
2015,07,20,18,37,20.60
2015,07,20,18,38,20.70
2015,07,20,18,39,20.70
2015,07,20,18,40,20.70
2015,07,20,18,41,20.80
2015,07,20,18,42,20.80
2015,07,20,18,43,20.80
2015,07,20,18,44,20.80
2015,07,20,18,45,20.80
2015,07,20,18,46,20.80
2015,07,20,18,47,20.80
2015,07,20,18,48,20.80
2015,07,20,18,49,20.80
2015,07,20,18,50,20.80
2015,07,20,18,51,20.80
2015,07,20,18,52,20.80
2015,07,20,18,53,20.70
2015,07,20,18,54,20.70
2015,07,20,18,55,20.70
2015,07,20,18,56,20.80
2015,07,20,18,57,20.80
2015,07,20,18,58,20.80
2015,07,20,18,59,20.80
2015,07,20,19,00,20.80
2015,07,20,19,01,20.80
2015,07,20,19,02,20.80
2015,07,20,19,03,20.80
2015,07,20,19,04,20.80
2015,07,20,19,05,20.80
2015,07,20,19,06,20.80
2015,07,20,19,07,20.80
2015,07,20,19,08,20.80
2015,07,20,19,09,20.80
2015,07,20,19,10,20.80
2015,07,20,19,11,20.80
2015,07,20,19,12,20.80
2015,07,20,19,13,20.80
2015,07,20,19,14,20.80
2015,07,20,19,15,20.90
2015,07,20,19,16,20.90
2015,07,20,19,17,20.80
2015,07,20,19,18,20.80
2015,07,20,19,19,20.80
2015,07,20,19,20,20.80
2015,07,20,19,21,20.80
2015,07,20,19,22,20.80
2015,07,20,19,23,20.80
2015,07,20,19,24,20.80
2015,07,20,19,25,20.80
2015,07,20,19,26,20.90
2015,07,20,19,27,20.90
2015,07,20,19,28,20.90
2015,07,20,19,29,21.00
2015,07,20,19,30,21.00
2015,07,20,19,31,21.10
2015,07,20,19,32,21.10
2015,07,20,19,33,21.20
2015,07,20,19,34,21.20
2015,07,20,19,35,21.30
2015,07,20,19,36,21.30
2015,07,20,19,37,21.30
2015,07,20,19,38,21.30
2015,07,20,19,39,21.30
2015,07,20,19,40,21.30
2015,07,20,19,41,21.40
2015,07,20,19,42,21.40
2015,07,20,19,43,21.50
2015,07,20,19,44,21.60
2015,07,20,19,45,21.70
2015,07,20,19,46,21.80
2015,07,20,19,47,22.00
2015,07,20,19,48,22.10
2015,07,20,19,49,22.20
2015,07,20,19,50,22.30
2015,07,20,19,51,22.40
2015,07,20,19,52,22.40
2015,07,20,19,53,22.50
2015,07,20,19,54,22.50
2015,07,20,19,55,22.50
2015,07,20,19,56,22.50
2015,07,20,19,57,22.40
2015,07,20,19,58,22.40
2015,07,20,19,59,22.40
2015,07,20,20,00,22.40
2015,07,20,20,01,22.40
2015,07,20,20,02,22.40
2015,07,20,20,03,22.40
2015,07,20,20,04,22.40
2015,07,20,20,05,22.50
2015,07,20,20,06,22.50
2015,07,20,20,07,22.50
2015,07,20,20,08,22.40
2015,07,20,20,09,22.30
2015,07,20,20,10,22.10
2015,07,20,20,11,22.00
2015,07,20,20,12,21.80
2015,07,20,20,13,21.70
2015,07,20,20,14,21.60
2015,07,20,20,15,21.50
2015,07,20,20,16,21.40
2015,07,20,20,17,21.30
2015,07,20,20,18,21.20
2015,07,20,20,19,21.20
2015,07,20,20,20,21.10
2015,07,20,20,21,21.00
2015,07,20,20,22,21.00
2015,07,20,20,23,20.90
2015,07,20,20,24,20.90
2015,07,20,20,25,20.90
2015,07,20,20,26,20.90
2015,07,20,20,27,20.90
2015,07,20,20,28,20.90
2015,07,20,20,29,20.90
2015,07,20,20,30,20.90
2015,07,20,20,31,20.80
2015,07,20,20,32,20.80
2015,07,20,20,33,20.80
2015,07,20,20,34,20.80
2015,07,20,20,35,20.70
2015,07,20,20,36,20.70
2015,07,20,20,37,20.70
2015,07,20,20,38,20.70
2015,07,20,20,39,20.60
2015,07,20,20,40,20.60
2015,07,20,20,41,20.60
2015,07,20,20,42,20.50